Retour au catalogue

ONEWEB-0666

ActifCommunicationsPO
NORAD 55826·PAYLOAD·🇬🇧 United Kingdom

Lancé Mar 9, 2023 depuis Cape Canaveral Space Force Station

Loading…

Prochains Passages (prochaines 24 heures)

TLE

FraisSource: CelesTrak SupGP

Époque: Sep 14, 2026, 15:51 UTC

1 55826C 23029AG  26257.66058287 -.00002865  00000+0 -70548-2 0  2571
2 55826  87.9131 256.6153 0001513 106.9721 289.2997 13.20775595    12

Suivez ONEWEB-0666 en temps réel avec AllMySat

Download on the App Store